Location: Ballingbuur
(53.0000°N, 5.7667°E)
Time: 08:38:07
(UTC+00:00)

Cosmos 1356 - Pass Details

Date: 22 April 2021
Orbit: 438 x 442 km, 81.1° (Epoch: 17 May)

Event Time Altitude Azimuth Distance (km) Brightness Sun altitude
Rises 19:58:16 0° 340° (NNW) 2,452 8.2 -9.8°
Reaches altitude 10° 20:00:27 10° 331° (NNW) 1,575 7.3 -10.1°
Maximum altitude 20:03:36 35° 264° (W) 735 5.0 -10.5°
Drops below altitude 10° 20:06:44 10° 197° (SSW) 1,559 5.9 -10.8°
Enters shadow 20:08:48 - 189° (S) 2,388 6.8 -11.1°
